Flag for Turkey Weather past 2 weeks in Samsun, Turkey

Now
48 °F

Fog.


Feels Like: 48 °F
Forecast: 48 / 78 °F
Wind: 2 mph from North

Location: Samsun / Carsamba


UV Index: 5 (Moderate)

Visibility: 0 mi


Pressure: 29.95 "Hg

Humidity: 100%

Dew point: 48 °F

Location of SamsunLocation

Historic Weather in Samsun

°F

Samsun temperature yesterday

Maximum temperature yesterday: 68 °F (at 12:50 PM)
Minimum temperature yesterday: 48 °F (at 6:50 AM)
Average temperature yesterday: 55 °F

Past Weeks' High & Low Weather Summary

 TemperatureHumidityPressure
High81 °F (Apr 11, 1:50 PM)100% (Apr 4, 12:50 AM)30.24 "Hg (Apr 4, 12:50 AM)
Low30 °F (Apr 4, 3:50 AM)21% (Apr 11, 1:50 PM)29.83 "Hg (Apr 10, 12:50 PM)
Average51 °F81%30.01 "Hg
* Reported Apr 2 5:50 AM — Apr 17 5:50 AM, Samsun, Weather by CustomWeather, © 2014

Note: Actual official high and low records may vary slightly from our data, if they occured in-between our weather recording intervals... More about our weather records

Advertising

Historic Weather Conditions — Data for Previous 24 hours

 ConditionsComfort  
Time TempWeatherWind HumidityBarometerVisibility
5:50 AM
Apr 17
48 °FFog.2 mph100%29.95 "Hg0 mi
4:50 AM48 °FFog.No wind100%29.95 "Hg0 mi
3:50 AM50 °FFog.No wind94%29.95 "Hg0 mi
2:50 AM50 °FFog.2 mph94%29.95 "Hg0 mi
1:50 AM50 °FFog.No wind94%29.98 "Hg0 mi
12:50 AM50 °FFog.No wind94%29.98 "Hg0 mi
11:50 PM
Apr 16
50 °FFog.2 mph94%29.98 "Hg0 mi
10:50 PM50 °FFog.No wind94%29.98 "Hg0 mi
9:50 PM50 °FFog.1 mph94%29.98 "Hg0 mi
9:01 PM50 °FFog.No wind94%29.98 "Hg0 mi
7:50 PM52 °FFog.No wind94%29.98 "Hg2 mi
6:50 PM52 °FScattered clouds.6 mph94%29.98 "Hg5 mi
5:50 PM57 °FScattered clouds.7 mph82%29.95 "HgN/A
4:50 PM63 °FScattered clouds.6 mph73%29.95 "HgN/A
3:50 PM61 °FScattered clouds.7 mph77%29.95 "HgN/A
2:50 PM61 °FScattered clouds.9 mph77%29.95 "HgN/A
1:50 PM63 °FScattered clouds.12 mph73%29.95 "HgN/A
12:50 PM68 °FScattered clouds.7 mph69%29.95 "HgN/A
11:50 AM64 °FScattered clouds.8 mph73%29.95 "HgN/A
10:50 AM63 °FScattered clouds.6 mph77%29.98 "HgN/A
9:50 AM61 °FPassing clouds.3 mph94%29.98 "HgN/A
9:04 AM55 °FFog.3 mph94%29.98 "Hg3 mi
8:50 AM54 °FFog.5 mph94%29.98 "Hg1 mi
7:50 AM48 °FPartly sunny.5 mph100%29.98 "Hg1 mi
Weather by CustomWeather, © 2014

See weather overview